TRA52X LIPQ-EHRD

Flight info

Callsign TRA52X
Flight time N/A
Altitude 36000
Route LUPIN P125 URAVA DCT VEKEN DCT UMVEG DCT KPT DCT MOMUK DCT USUDO DCT LIRSU DCT SOGRI L608 BUB Y28 HELEN
Aircraft B738/M-SDE2E3FGHIRWXY/LB1

Departure

Time 2026-05-07 12:59
Airport Trieste Airport (LIPQ)

Arrival

Time N/A
Airport Rotterdam The Hague Airport (EHRD)
Time Latitude Longitude Altitude Speed Heading
2026-05-07 12:35 45.82177 13.48207 36 ft 0 kts 171°
2026-05-07 12:54 45.82184 13.48206 45 ft 0 kts 171°
2026-05-07 12:55 45.82201 13.48202 42 ft 6 kts 171°
2026-05-07 12:55 45.82220 13.48195 41 ft 6 kts 123°
2026-05-07 12:55 45.82223 13.48181 39 ft 0 kts 75°
2026-05-07 12:56 45.82245 13.48298 45 ft 19 kts 75°
2026-05-07 12:57 45.82291 13.48506 45 ft 23 kts 66°
2026-05-07 12:57 45.82417 13.48582 44 ft 22 kts 354°
2026-05-07 12:57 45.82567 13.48575 44 ft 21 kts
2026-05-07 12:57 45.82713 13.48575 44 ft 21 kts 359°
2026-05-07 12:58 45.82779 13.48430 42 ft 18 kts 268°
2026-05-07 12:58 45.82778 13.48320 42 ft 8 kts 270°
2026-05-07 12:58 45.82778 13.48247 43 ft 7 kts 270°
2026-05-07 12:58 45.82779 13.48158 43 ft 22 kts 270°
2026-05-07 12:59 45.82782 13.47486 46 ft 110 kts 270°
2026-05-07 12:59 45.82791 13.46029 167 ft 172 kts 268°
2026-05-07 12:59 45.82816 13.44187 927 ft 187 kts 268°
2026-05-07 12:59 45.82831 13.42453 2427 ft 171 kts 269°
2026-05-07 13:00 45.82846 13.40659 3114 ft 192 kts 269°
2026-05-07 13:00 45.82866 13.38713 3826 ft 197 kts 268°
2026-05-07 13:00 45.82599 13.36798 4489 ft 200 kts 240°
2026-05-07 13:00 45.81659 13.35315 5060 ft 210 kts 212°
2026-05-07 13:01 45.80333 13.34359 5703 ft 218 kts 205°
2026-05-07 13:01 45.78917 13.33487 6485 ft 222 kts 204°
2026-05-07 13:01 45.77495 13.32621 7311 ft 223 kts 205°
2026-05-07 13:01 45.76057 13.31736 8083 ft 226 kts 205°
2026-05-07 13:02 45.74605 13.30836 8894 ft 228 kts 205°
2026-05-07 13:02 45.73148 13.29929 9730 ft 230 kts 206°
2026-05-07 13:02 45.71675 13.29011 10480 ft 232 kts 206°
2026-05-07 13:02 45.70219 13.28029 11227 ft 231 kts 217°
2026-05-07 13:03 45.69160 13.26339 11960 ft 230 kts 243°
2026-05-07 13:03 45.68722 13.24148 12692 ft 233 kts 266°
2026-05-07 13:03 45.68993 13.21840 13409 ft 242 kts 290°
2026-05-07 13:03 45.70001 13.19868 14064 ft 254 kts 317°
2026-05-07 13:04 45.71623 13.18758 14698 ft 268 kts 346°
2026-05-07 13:04 45.73510 13.18865 15323 ft 280 kts 14°
2026-05-07 13:04 45.75201 13.20283 15908 ft 289 kts 45°
2026-05-07 13:04 45.76456 13.22550 16552 ft 292 kts 56°
2026-05-07 13:05 45.77575 13.25001 17187 ft 296 kts 56°
2026-05-07 13:05 45.78716 13.27475 17820 ft 300 kts 55°
2026-05-07 13:05 45.79903 13.29951 18436 ft 303 kts 54°
2026-05-07 13:05 45.81121 13.32442 18956 ft 308 kts 54°
2026-05-07 13:06 45.82452 13.34871 19426 ft 313 kts 39°
2026-05-07 13:06 45.84307 13.36477 19778 ft 317 kts 14°
2026-05-07 13:06 45.86496 13.37247 19936 ft 332 kts
2026-05-07 13:06 45.88835 13.37874 20081 ft 352 kts
2026-05-07 13:07 45.91312 13.38526 20226 ft 371 kts
2026-05-07 13:07 45.93916 13.39241 20360 ft 391 kts
2026-05-07 13:07 45.96604 13.40013 20481 ft 408 kts
2026-05-07 13:07 45.99446 13.40844 20618 ft 424 kts
2026-05-07 13:08 46.02376 13.41706 20969 ft 433 kts
2026-05-07 13:08 46.05344 13.42564 21492 ft 437 kts
2026-05-07 13:08 46.08340 13.43423 22027 ft 441 kts
2026-05-07 13:08 46.11363 13.44289 22521 ft 445 kts
2026-05-07 13:09 46.14420 13.45167 22991 ft 450 kts
2026-05-07 13:09 46.17508 13.46057 23434 ft 455 kts
2026-05-07 13:09 46.20628 13.46955 23871 ft 458 kts
2026-05-07 13:09 46.23753 13.47865 24371 ft 459 kts
2026-05-07 13:10 46.26890 13.48799 24792 ft 462 kts
2026-05-07 13:10 46.30044 13.49744 25175 ft 464 kts
2026-05-07 13:10 46.33219 13.50695 25560 ft 468 kts
2026-05-07 13:10 46.36419 13.51648 25923 ft 471 kts
2026-05-07 13:11 46.39655 13.52035 26274 ft 464 kts 351°
2026-05-07 13:11 46.42789 13.51174 26681 ft 456 kts 336°
2026-05-07 13:11 46.45636 13.49292 26969 ft 446 kts 320°
2026-05-07 13:11 46.48127 13.46645 27297 ft 444 kts 316°
2026-05-07 13:12 46.50603 13.43947 27609 ft 447 kts 317°
2026-05-07 13:12 46.53122 13.41275 27918 ft 450 kts 318°
2026-05-07 13:12 46.55566 13.38461 28160 ft 446 kts 311°
2026-05-07 13:12 46.57674 13.35193 28507 ft 440 kts 302°
2026-05-07 13:13 46.59400 13.31546 28823 ft 438 kts 297°
2026-05-07 13:13 46.61049 13.27809 29119 ft 440 kts 297°
2026-05-07 13:13 46.62695 13.24032 29427 ft 443 kts 297°
2026-05-07 13:13 46.64347 13.20247 29774 ft 445 kts 297°
2026-05-07 13:14 46.66016 13.16442 30111 ft 446 kts 297°
2026-05-07 13:14 46.67692 13.12648 30530 ft 445 kts 297°
2026-05-07 13:14 46.69367 13.08870 30982 ft 443 kts 298°
2026-05-07 13:14 46.71034 13.05116 31366 ft 442 kts 298°
2026-05-07 13:15 46.72704 13.01352 31689 ft 442 kts 298°
2026-05-07 13:15 46.74370 12.97591 32053 ft 441 kts 298°
2026-05-07 13:15 46.76032 12.93836 32422 ft 440 kts 298°
2026-05-07 13:15 46.77689 12.90086 32779 ft 439 kts 298°
2026-05-07 13:16 46.79340 12.86344 33143 ft 438 kts 298°
2026-05-07 13:16 46.80964 12.82660 33504 ft 437 kts 298°
2026-05-07 13:16 46.82602 12.78936 33868 ft 435 kts 298°
2026-05-07 13:16 46.84235 12.75221 34177 ft 434 kts 298°
2026-05-07 13:17 46.85865 12.71504 34427 ft 435 kts 298°
2026-05-07 13:17 46.87495 12.67781 34660 ft 436 kts 298°
2026-05-07 13:17 46.89130 12.64041 34886 ft 437 kts 298°
2026-05-07 13:17 46.90766 12.60305 35148 ft 435 kts 298°
2026-05-07 13:18 46.92393 12.56577 35318 ft 436 kts 298°
2026-05-07 13:18 46.94026 12.52826 35510 ft 438 kts 298°
2026-05-07 13:18 46.95661 12.49067 35759 ft 437 kts 298°
2026-05-07 13:18 46.97292 12.45314 35981 ft 437 kts 298°
2026-05-07 13:19 46.98925 12.41551 36160 ft 438 kts 298°
2026-05-07 13:19 47.00554 12.37790 36323 ft 439 kts 298°
2026-05-07 13:19 47.02191 12.34010 36576 ft 438 kts 298°
2026-05-07 13:19 47.03820 12.30241 36800 ft 438 kts 298°
2026-05-07 13:20 47.05452 12.26459 36931 ft 440 kts 298°
2026-05-07 13:20 47.07087 12.22665 37143 ft 440 kts 298°
2026-05-07 13:20 47.08718 12.18879 37422 ft 439 kts 298°
2026-05-07 13:20 47.10346 12.15091 37641 ft 438 kts 298°
2026-05-07 13:21 47.13602 12.07499 37932 ft 439 kts 298°
2026-05-07 13:21 47.16863 11.99873 37987 ft 442 kts 298°
2026-05-07 13:22 47.20133 11.92212 37989 ft 441 kts 298°
2026-05-07 13:22 47.23176 11.84486 37965 ft 437 kts 294°
2026-05-07 13:23 47.25942 11.76574 37975 ft 434 kts 293°
2026-05-07 13:23 47.28543 11.69048 37974 ft 432 kts 294°
2026-05-07 13:24 47.31292 11.61169 37967 ft 432 kts 294°
2026-05-07 13:24 47.34052 11.53294 37978 ft 433 kts 294°
2026-05-07 13:25 47.36819 11.45392 37978 ft 434 kts 294°
2026-05-07 13:25 47.39141 11.38743 37976 ft 436 kts 294°
2026-05-07 13:26 47.41919 11.30766 37975 ft 438 kts 294°
2026-05-07 13:26 47.44682 11.22804 37975 ft 439 kts 294°
2026-05-07 13:27 47.47364 11.15054 37974 ft 440 kts 294°
2026-05-07 13:27 47.50144 11.06996 37977 ft 440 kts 294°
2026-05-07 13:28 47.52921 10.98922 37995 ft 440 kts 294°
2026-05-07 13:28 47.55691 10.90841 38005 ft 440 kts 294°
2026-05-07 13:29 47.58452 10.82764 38017 ft 440 kts 294°
2026-05-07 13:29 47.61206 10.74680 38019 ft 439 kts 294°
2026-05-07 13:30 47.63949 10.66603 38019 ft 438 kts 294°
2026-05-07 13:30 47.66682 10.58532 38020 ft 437 kts 294°
2026-05-07 13:31 47.69405 10.50466 38015 ft 436 kts 294°
2026-05-07 13:31 47.72115 10.42413 38014 ft 436 kts 294°
2026-05-07 13:32 47.74730 10.34563 38022 ft 435 kts 291°
2026-05-07 13:32 47.76990 10.26254 38026 ft 433 kts 288°
2026-05-07 13:33 47.79136 10.17884 38028 ft 433 kts 289°
2026-05-07 13:33 47.81323 10.09527 38021 ft 434 kts 289°
2026-05-07 13:34 47.85667 9.97724 38017 ft 441 kts 307°
2026-05-07 13:35 47.90171 9.91463 38026 ft 445 kts 317°
2026-05-07 13:35 47.94935 9.85526 38023 ft 447 kts 317°
2026-05-07 13:36 47.99644 9.79555 38022 ft 448 kts 316°
2026-05-07 13:36 48.04365 9.73482 38020 ft 449 kts 316°
2026-05-07 13:37 48.09093 9.67377 38020 ft 449 kts 315°
2026-05-07 13:37 48.13642 9.60997 38024 ft 448 kts 313°
2026-05-07 13:38 48.18096 9.54452 38019 ft 448 kts 313°
2026-05-07 13:38 48.22551 9.47907 38018 ft 448 kts 313°
2026-05-07 13:39 48.25485 9.43617 38018 ft 448 kts 313°
2026-05-07 13:39 48.29099 9.38340 38016 ft 448 kts 313°
2026-05-07 13:40 48.33561 9.31821 38014 ft 447 kts 313°
2026-05-07 13:40 48.38015 9.25298 38022 ft 447 kts 313°
2026-05-07 13:41 48.42458 9.18774 38021 ft 446 kts 313°
2026-05-07 13:41 48.46895 9.12240 38017 ft 446 kts 313°
2026-05-07 13:42 48.51324 9.05701 38023 ft 445 kts 313°
2026-05-07 13:42 48.55746 8.99155 38016 ft 445 kts 313°
2026-05-07 13:43 48.60157 8.92610 38015 ft 445 kts 313°
2026-05-07 13:43 48.64563 8.86053 38016 ft 444 kts 313°
2026-05-07 13:44 48.68966 8.79485 38018 ft 444 kts 313°
2026-05-07 13:44 48.73364 8.72907 38020 ft 445 kts 313°
2026-05-07 13:45 48.77761 8.66314 38025 ft 445 kts 313°
2026-05-07 13:45 48.82154 8.59708 38026 ft 445 kts 313°
2026-05-07 13:46 48.86544 8.53091 38032 ft 445 kts 313°
2026-05-07 13:46 48.90932 8.46459 38036 ft 445 kts 313°
2026-05-07 13:47 48.95321 8.39808 38046 ft 446 kts 313°
2026-05-07 13:47 48.99713 8.33136 38036 ft 446 kts 313°
2026-05-07 13:48 49.04098 8.26456 38037 ft 446 kts 313°
2026-05-07 13:48 49.08487 8.19752 38040 ft 446 kts 313°
2026-05-07 13:49 49.12874 8.13034 38039 ft 447 kts 313°
2026-05-07 13:49 49.17262 8.06296 38033 ft 447 kts 313°
2026-05-07 13:50 49.21642 7.99552 38040 ft 447 kts 313°
2026-05-07 13:50 49.26023 7.92790 38040 ft 447 kts 313°
2026-05-07 13:51 49.30402 7.86012 38041 ft 447 kts 313°
2026-05-07 13:51 49.34766 7.79239 38041 ft 447 kts 313°
2026-05-07 13:52 49.39143 7.72426 38038 ft 447 kts 313°
2026-05-07 13:52 49.43504 7.65621 38034 ft 447 kts 313°
2026-05-07 13:53 49.47832 7.58850 38036 ft 447 kts 313°
2026-05-07 13:53 49.52184 7.52023 38051 ft 447 kts 313°
2026-05-07 13:54 49.56530 7.45186 38052 ft 447 kts 313°
2026-05-07 13:54 49.60875 7.38333 38045 ft 447 kts 313°
2026-05-07 13:55 49.65219 7.31461 38041 ft 447 kts 313°
2026-05-07 13:55 49.69560 7.24577 38042 ft 447 kts 313°
2026-05-07 13:56 49.73897 7.17680 38043 ft 448 kts 313°
2026-05-07 13:56 49.78234 7.10764 38048 ft 448 kts 312°
2026-05-07 13:57 49.82565 7.03838 38043 ft 448 kts 312°
2026-05-07 13:57 49.86899 6.96890 38042 ft 448 kts 312°
2026-05-07 13:58 49.91228 6.89929 38037 ft 448 kts 312°
2026-05-07 13:58 49.95554 6.82954 38038 ft 449 kts 312°
2026-05-07 13:59 49.99881 6.75958 38036 ft 449 kts 312°
2026-05-07 13:59 50.04206 6.68946 38036 ft 449 kts 312°
2026-05-07 14:00 50.08526 6.61923 38039 ft 449 kts 312°
2026-05-07 14:00 50.12843 6.54884 38031 ft 449 kts 312°
2026-05-07 14:01 50.17153 6.47839 38031 ft 449 kts 312°
2026-05-07 14:01 50.21106 6.40351 38043 ft 446 kts 304°
2026-05-07 14:02 50.24637 6.32367 38035 ft 447 kts 303°
2026-05-07 14:02 50.28152 6.24352 38030 ft 447 kts 303°
2026-05-07 14:03 50.31691 6.16373 38035 ft 447 kts 303°
2026-05-07 14:03 50.35247 6.08391 38037 ft 447 kts 303°
2026-05-07 14:04 50.38799 6.00407 38039 ft 447 kts 303°
2026-05-07 14:04 50.42349 5.92401 38024 ft 447 kts 303°
2026-05-07 14:04 50.44137 5.88358 37527 ft 453 kts 303°
2026-05-07 14:05 50.45927 5.84301 37001 ft 451 kts 303°
2026-05-07 14:05 50.47683 5.80319 36455 ft 449 kts 303°
2026-05-07 14:05 50.49456 5.76293 35848 ft 448 kts 303°
2026-05-07 14:05 50.51224 5.72269 35217 ft 448 kts 303°
2026-05-07 14:06 50.52993 5.68239 34575 ft 447 kts 303°
2026-05-07 14:06 50.54556 5.64670 34160 ft 443 kts 303°
2026-05-07 14:06 50.56292 5.60703 33629 ft 439 kts 303°
2026-05-07 14:06 50.58015 5.56762 33144 ft 434 kts 303°
2026-05-07 14:07 50.59714 5.52866 32691 ft 429 kts 303°
2026-05-07 14:07 50.61391 5.49016 32241 ft 424 kts 303°
2026-05-07 14:07 50.63049 5.45206 31781 ft 420 kts 303°
2026-05-07 14:07 50.64686 5.41435 31340 ft 416 kts 303°
2026-05-07 14:08 50.66310 5.37689 30910 ft 412 kts 303°
2026-05-07 14:08 50.67918 5.33977 30479 ft 408 kts 303°
2026-05-07 14:08 50.69512 5.30290 30039 ft 405 kts 303°
2026-05-07 14:08 50.71088 5.26641 29554 ft 401 kts 303°
2026-05-07 14:09 50.72650 5.23018 29123 ft 396 kts 303°
2026-05-07 14:09 50.74189 5.19445 28688 ft 392 kts 303°
2026-05-07 14:09 50.75715 5.15897 28252 ft 388 kts 303°
2026-05-07 14:09 50.77222 5.12390 27822 ft 384 kts 303°
2026-05-07 14:10 50.78210 5.10085 27532 ft 382 kts 303°
2026-05-07 14:10 50.79138 5.07922 27269 ft 380 kts 303°
2026-05-07 14:10 50.80862 5.03119 26716 ft 374 kts 291°
2026-05-07 14:10 50.81435 5.00576 26495 ft 370 kts 286°
2026-05-07 14:11 50.82178 4.96695 26080 ft 367 kts 285°
2026-05-07 14:11 50.82888 4.92836 25675 ft 365 kts 285°
2026-05-07 14:11 50.83594 4.88999 25271 ft 363 kts 285°
2026-05-07 14:11 50.84303 4.85177 24869 ft 361 kts 285°
2026-05-07 14:12 50.85014 4.81383 24475 ft 359 kts 285°
2026-05-07 14:12 50.85726 4.77605 24074 ft 358 kts 285°
2026-05-07 14:12 50.86436 4.73842 23683 ft 356 kts 285°
2026-05-07 14:12 50.87142 4.70095 23212 ft 355 kts 285°
2026-05-07 14:13 50.87846 4.66362 22769 ft 353 kts 285°
2026-05-07 14:13 50.88542 4.62660 22374 ft 350 kts 285°
2026-05-07 14:13 50.89233 4.58977 21975 ft 347 kts 285°
2026-05-07 14:13 50.89928 4.55338 21578 ft 345 kts 288°
2026-05-07 14:14 50.90892 4.51866 21172 ft 344 kts 298°
2026-05-07 14:14 50.92125 4.48625 20792 ft 342 kts 300°
2026-05-07 14:14 50.93383 4.45439 20398 ft 340 kts 301°
2026-05-07 14:14 50.94637 4.42274 20013 ft 338 kts 301°
2026-05-07 14:15 50.95882 4.39113 19638 ft 337 kts 301°
2026-05-07 14:15 50.97113 4.35963 19255 ft 335 kts 300°
2026-05-07 14:15 50.98333 4.32824 18877 ft 334 kts 300°
2026-05-07 14:15 50.99546 4.29690 18497 ft 333 kts 300°
2026-05-07 14:16 51.00752 4.26566 18091 ft 332 kts 300°
2026-05-07 14:16 51.01953 4.23448 17673 ft 330 kts 300°
2026-05-07 14:16 51.03148 4.20342 17278 ft 328 kts 300°
2026-05-07 14:16 51.04332 4.17261 16913 ft 326 kts 300°
2026-05-07 14:17 51.05508 4.14195 16527 ft 324 kts 300°
2026-05-07 14:17 51.06677 4.11149 16161 ft 322 kts 300°